Date String (YYYY-MM-DD hh:mm:ss) UTC,Instrument flags,absolute air pressure of the measurement (hPa),sample flow rate (lpm),inlet stack bypass flow (lpm),air temperature of the measurement (°C),ambient temperature measured by the external sensor (°C),aerosol sample conditioner tube jacket temperature (°C),OPC LED temperature (°C),internal box temperature (°C),relative humidity of the measurement (%),span deviation,mass concentration of particles derived from Lorenz-Mie calculation of OPC scattering (μg/m³),mass concentration of particles derived from Lorenz-Mie calculation of OPC scattering (μg/m³),mass concentration of particles derived from Lorenz-Mie calculation of OPC scattering (μg/m³)
DateTimeUTC,F1_M11,P_M11,Q1_M11,Q2_M11,T1_M11,T2_M11,T3_M11,T4_M11,T5_M11,U1_M11,ZSPAN_M11,X0_M11,X2_M11,X1_M11
2023-09-02 08:00:00,SystemResetWarning,0832.2,4.98,000.00,028.1,025.7,000.0,036.3,029.4,24.9,0000.0,0011.49,0004.12,0003.37
2023-09-02 08:01:00,SystemResetWarning,0832.2,5.02,000.00,028.0,024.8,000.0,036.3,029.2,25.0,0000.0,0011.05,0004.10,0003.37
2023-09-02 08:02:00,SystemResetWarning,0832.2,5.01,000.00,027.9,024.8,000.0,036.2,029.2,25.1,0000.0,0011.01,0004.12,0003.37
2023-09-02 08:03:00,SystemResetWarning,0832.2,5.00,000.00,027.8,025.1,000.0,036.3,029.2,25.2,0000.0,0010.99,0004.15,0003.38
2023-09-02 08:04:00,SystemResetWarning,0832.2,5.00,000.00,027.8,025.5,000.0,036.3,029.3,25.2,0000.0,0010.36,0004.16,0003.37
2023-09-02 08:05:00,SystemResetWarning,0832.2,5.00,000.00,027.9,025.8,000.0,036.3,029.4,25.3,0000.0,0009.94,0004.17,0003.37
2023-09-02 08:06:00,SystemResetWarning,0832.2,5.00,000.00,027.9,026.1,000.0,036.3,029.5,25.3,0000.0,0009.75,0004.23,0003.37
2023-09-02 08:07:00,SystemResetWarning,0832.2,5.00,000.00,027.9,026.4,000.0,036.3,029.6,25.1,0000.0,0009.77,0004.22,0003.37
2023-09-02 08:08:00,SystemResetWarning,0832.2,4.99,000.00,028.0,026.6,000.0,036.3,029.7,25.0,0000.0,0009.65,0004.20,0003.35
2023-09-02 08:09:00,SystemResetWarning,0832.2,5.01,000.00,028.0,026.8,000.0,036.4,029.7,24.9,0000.0,0009.17,0004.21,0003.35
2023-09-02 08:10:00,SystemResetWarning,0832.2,4.99,000.00,028.1,026.9,000.0,036.4,029.8,24.9,0000.0,0008.46,0004.22,0003.34
2023-09-02 08:11:00,SystemResetWarning,0832.2,4.99,000.00,028.1,027.1,000.0,036.4,029.9,24.7,0000.0,0008.33,0004.24,0003.35
2023-09-02 08:12:00,SystemResetWarning,0832.2,5.00,000.00,028.1,026.1,000.0,036.4,029.6,24.6,0000.0,0008.73,0004.23,0003.36
2023-09-02 08:13:00,SystemResetWarning,0832.2,5.00,000.00,028.0,024.9,000.0,036.3,029.3,24.7,0000.0,0009.06,0004.21,0003.35
2023-09-02 08:14:00,SystemResetWarning,0832.2,5.01,000.00,027.9,024.8,000.0,036.2,029.2,24.8,0000.0,0009.06,0004.20,0003.35
2023-09-02 08:15:00,SystemResetWarning,0832.2,5.01,000.00,027.9,025.0,000.0,036.3,029.2,24.9,0000.0,0009.08,0004.19,0003.35
2023-09-02 08:16:00,SystemResetWarning,0832.2,5.00,000.00,027.9,025.4,000.0,036.3,029.3,24.9,0000.0,0009.31,0004.19,0003.36
2023-09-02 08:17:00,SystemResetWarning,0832.2,5.00,000.00,027.9,025.7,000.0,036.3,029.4,24.8,0000.0,0009.32,0004.09,0003.36
2023-09-02 08:18:00,SystemResetWarning,0832.2,5.00,000.00,027.9,026.0,000.0,036.3,029.5,24.7,0000.0,0009.51,0004.13,0003.36
2023-09-02 08:19:00,SystemResetWarning,0832.2,5.00,000.00,027.9,026.3,000.0,036.3,029.6,24.6,0000.0,0009.60,0004.15,0003.36
2023-09-02 08:20:00,SystemResetWarning,0832.2,5.01,000.00,028.0,026.5,000.0,036.3,029.7,24.5,0000.0,0009.75,0004.16,0003.36
2023-09-02 08:21:00,SystemResetWarning,0832.2,5.00,000.00,028.0,026.7,000.0,036.4,029.7,24.5,0000.0,0010.03,0004.19,0003.37
2023-09-02 08:22:00,SystemResetWarning,0832.3,5.00,000.00,028.1,026.9,000.0,036.4,029.8,24.5,0000.0,0010.10,0004.19,0003.35
2023-09-02 08:23:00,SystemResetWarning,0832.3,5.00,000.00,028.1,027.1,000.0,036.4,029.8,24.4,0000.0,0010.14,0004.21,0003.35
2023-09-02 08:24:00,SystemResetWarning,0832.3,4.99,000.00,028.2,027.2,000.0,036.5,029.9,24.3,0000.0,0009.83,0004.23,0003.37
2023-09-02 08:25:00,SystemResetWarning,0832.3,4.98,000.00,028.2,026.7,000.0,036.4,029.8,24.1,0000.0,0009.80,0004.22,0003.36
2023-09-02 08:26:00,SystemResetWarning,0832.3,5.00,000.00,028.1,025.0,000.0,036.4,029.2,24.2,0000.0,0009.72,0004.22,0003.36
2023-09-02 08:27:00,SystemResetWarning,0832.3,5.00,000.00,027.9,023.9,000.0,036.3,028.9,24.5,0000.0,0009.60,0004.21,0003.36
2023-09-02 08:28:00,SystemResetWarning,0832.2,5.01,000.00,027.8,023.9,000.0,036.2,028.9,24.6,0000.0,0009.74,0004.23,0003.36
2023-09-02 08:29:00,SystemResetWarning,0832.3,5.01,000.00,027.7,024.3,000.0,036.2,028.9,24.7,0000.0,0010.77,0004.19,0003.36
2023-09-02 08:30:00,SystemResetWarning,0832.3,5.00,000.00,027.7,024.7,000.0,036.2,029.0,24.8,0000.0,0011.24,0004.23,0003.37
2023-09-02 08:31:00,SystemResetWarning,0832.3,5.01,000.00,027.7,025.2,000.0,036.2,029.2,24.8,0000.0,0011.21,0004.21,0003.36
2023-09-02 08:32:00,SystemResetWarning,0832.3,4.99,000.00,027.7,025.6,000.0,036.2,029.3,24.9,0000.0,0011.04,0004.18,0003.35
2023-09-02 08:33:00,SystemResetWarning,0832.3,5.00,000.00,027.8,025.9,000.0,036.2,029.4,24.8,0000.0,0011.43,0004.18,0003.36
2023-09-02 08:34:00,SystemResetWarning,0832.4,5.01,000.00,027.8,026.2,000.0,036.2,029.5,24.7,0000.0,0011.26,0004.18,0003.37
2023-09-02 08:35:00,SystemResetWarning,0832.4,5.00,000.00,027.9,026.4,000.0,036.3,029.6,25.0,0000.0,0011.83,0004.16,0003.36
2023-09-02 08:36:00,SystemResetWarning,0832.4,5.00,000.00,027.9,026.6,000.0,036.3,029.6,24.8,0000.0,0012.73,0004.19,0003.37
2023-09-02 08:37:00,SystemResetWarning,0832.5,4.99,000.00,028.0,026.8,000.0,036.3,029.7,24.6,0000.0,0012.86,0004.21,0003.36
2023-09-02 08:38:00,SystemResetWarning,0832.5,5.00,000.00,028.0,026.9,000.0,036.3,029.7,24.4,0000.0,0013.19,0004.22,0003.37
2023-09-02 08:39:00,SystemResetWarning,0832.5,5.00,000.00,028.1,027.1,000.0,036.4,029.8,24.3,0000.0,0013.36,0004.21,0003.38
2023-09-02 08:40:00,SystemResetWarning,0832.5,5.01,000.00,028.1,027.2,000.0,036.4,029.8,24.3,0000.0,0012.76,0004.21,0003.38
2023-09-02 08:41:00,SystemResetWarning,0832.5,4.99,000.00,028.1,026.7,000.0,036.4,029.7,24.5,0000.0,0012.56,0004.18,0003.38
2023-09-02 08:42:00,SystemResetWarning,0832.5,4.99,000.00,028.0,025.2,000.0,036.3,029.3,24.5,0000.0,0013.01,0004.21,0003.39
2023-09-02 08:43:00,SystemResetWarning,0832.5,5.02,000.00,027.9,024.7,000.0,036.2,029.2,24.7,0000.0,0013.43,0004.21,0003.39
2023-09-02 08:44:00,SystemResetWarning,0832.5,5.00,000.00,027.9,024.9,000.0,036.2,029.1,25.0,0000.0,0013.40,0004.19,0003.39
2023-09-02 08:45:00,SystemResetWarning,0832.5,5.00,000.00,027.8,025.2,000.0,036.3,029.2,24.6,0000.0,0014.01,0004.25,0003.38
2023-09-02 08:46:00,SystemResetWarning,0832.6,5.01,000.00,027.8,025.5,000.0,036.3,029.3,24.5,0000.0,0014.07,0004.29,0003.39
2023-09-02 08:47:00,SystemResetWarning,0832.5,5.00,000.00,027.9,025.9,000.0,036.3,029.4,24.5,0000.0,0012.79,0004.30,0003.38
2023-09-02 08:48:00,SystemResetWarning,0832.5,5.00,000.00,027.9,026.2,000.0,036.3,029.5,24.5,0000.0,0012.99,0004.31,0003.39
2023-09-02 08:49:00,SystemResetWarning,0832.5,5.00,000.00,027.9,026.4,000.0,036.3,029.6,24.7,0000.0,0013.03,0004.25,0003.39
2023-09-02 08:50:00,SystemResetWarning,0832.6,4.99,000.00,028.0,026.6,000.0,036.3,029.7,24.5,0000.0,0012.26,0004.23,0003.39
2023-09-02 08:51:00,SystemResetWarning,0832.5,5.00,000.00,028.0,026.8,000.0,036.4,029.7,24.5,0000.0,0012.28,0004.23,0003.39
2023-09-02 08:52:00,SystemResetWarning,0832.5,5.00,000.00,028.1,027.0,000.0,036.4,029.8,24.5,0000.0,0011.94,0004.23,0003.39
2023-09-02 08:53:00,SystemResetWarning,0832.6,4.99,000.00,028.1,027.1,000.0,036.4,029.8,24.6,0000.0,0011.36,0004.21,0003.39
2023-09-02 08:54:00,SystemResetWarning,0832.5,5.00,000.00,028.2,027.2,000.0,036.5,029.9,24.4,0000.0,0010.98,0004.21,0003.39
2023-09-02 08:55:00,SystemResetWarning,0832.5,4.99,000.00,028.2,026.5,000.0,036.4,029.7,24.3,0000.0,0010.69,0004.21,0003.40
2023-09-02 08:56:00,SystemResetWarning,0832.5,5.00,000.00,028.1,025.1,000.0,036.4,029.3,24.5,0000.0,0010.13,0004.15,0003.40
2023-09-02 08:57:00,SystemResetWarning,0832.5,5.00,000.00,028.0,024.8,000.0,036.3,029.2,24.6,0000.0,0010.22,0004.10,0003.40
2023-09-02 08:58:00,SystemResetWarning,0832.5,5.01,000.00,027.9,025.0,000.0,036.3,029.1,24.8,0000.0,0010.64,0004.07,0003.40
2023-09-02 08:59:00,SystemResetWarning,0832.5,5.01,000.00,027.9,025.3,000.0,036.3,029.3,24.7,0000.0,0010.70,0004.06,0003.40
